{"data":{"norad_id":69011,"intl_designator":"2026-100AH","name":"EYCORE-1","alt_names":[],"object_type":"PAYLOAD","status":"ACTIVE","operator":null,"country":"POL","launch_date":"2026-05-03","launch_site_code":"AFWTR","launch_vehicle":null,"mission":null,"orbit_class":"UNKNOWN","rcs_meters":null,"size_class":null,"mass_kg":null,"dimensions":null,"purposes":[],"wikipedia_slug":null,"has_3d_model":false,"image_url":null,"decayed_at":null,"tle_current":{"epoch":"2026-09-20T03:36:03.559680Z","epoch_age_seconds":49673,"freshness":"FRESH","line1":"1 69011U 26100AH  26263.15004120  .00002882  00000+0  13176-3 0  9998","line2":"2 69011  97.3913 159.3006 0006227  69.8548 290.3357 15.21332654 21242","mean_motion":15.21332654,"eccentricity":0.0006227,"inclination_deg":97.3913,"raan_deg":159.3006,"arg_perigee_deg":69.8548,"mean_anomaly_deg":290.3357,"bstar":0.00013176,"rev_number":2124,"period_min":94.653854711778,"perigee_km":497.53573527967,"apogee_km":506.10403358354,"semimajor_km":6879.9568844316,"source":"CELESTRAK","updated_at":"2026-09-20T09:00:24.628964Z"}}}